Location: Hopkins Observatory
(42.6965°N, 73.1843°W)
Time: 08:00:38
(UTC-05:00)

UOSAT-12 - Visible Passes

Search period start: 17 January 2017 00:00
Search period end: 27 January 2017 00:00
Orbit: 613 x 641 km, 64.6° (Epoch: 16 January)

Date Brightness Start Highest point End Pass type
(mag) Time Alt. Az. Time Alt. Az. Time Alt. Az.
17 Jan 7.2 17:29:45 10° NW 17:34:23 89° WSW 17:39:00 10° SSE visible
17 Jan 10.6 19:13:08 10° W 19:13:44 10° WSW 19:14:21 10° WSW visible
18 Jan 8.6 17:49:47 10° NW 17:54:08 41° WSW 17:58:27 10° S visible
19 Jan 10.1 18:10:24 10° WNW 18:13:42 20° WSW 18:16:59 10° SSW visible
20 Jan 10.9 06:44:03 10° SE 06:45:40 12° ESE 06:47:16 10° E visible
22 Jan 10.5 17:30:12 10° WNW 17:33:06 17° WSW 17:35:59 10° SSW visible
23 Jan 10.5 06:02:41 10° SE 06:05:02 14° ESE 06:07:24 10° ENE visible
24 Jan 9.3 06:20:36 10° S 06:24:32 30° ESE 06:28:31 10° NE visible
25 Jan 7.6 06:39:45 10° SSW 06:44:13 67° ESE 06:48:44 10° NE visible
26 Jan 10.1 05:21:33 10° SSE 05:24:26 17° ESE 05:27:18 10° ENE visible
